#timestamp,LO_Frequency,Hit,StdDev 
1633431615.3,286047000.4,N
1633431635.1,286046998.7,N
1633431655.8,286046998.7,N
1633431675.7,286047000.7,N
1633431695.5,286046998.1,N
1633431715.3,286046998.9,N
1633431735.2,286046998.7,N
1633431755.0,286046997.4,N
1633431755.9,286046997.4,N
1633431775.7,286046997.0,N
1633431795.6,286046997.7,N
1633431815.4,286046995.3,Y
1633431835.2,286046996.9,P
1633431855.1,286046996.8,P
1633431856.0,286046996.8,P
1633431875.8,286046996.7,Y
1633431895.7,286047002.2,P
1633431915.5,286047002.6,N
1633431935.3,286047002.5,N
1633431955.2,286047002.2,N
1633431975.9,286047002.3,N
1633431995.7,286047001.6,N
1633432015.6,286047002.5,N
1633432035.4,286047001.8,N
1633432055.2,286047001.7,N
1633432075.1,286047002.6,N
1633432076.0,286047002.6,N
1633432095.8,286047000.4,N
1633432115.6,286047002.8,N
1633432135.5,286047001.6,N
1633432155.3,286047002.5,N
1633432175.1,286047002.1,N
1633432195.9,286047002.5,N
1633432215.7,286046998.3,N
1633432235.5,286047000.3,N
1633432255.3,286047000.4,N
1633432275.2,286047001.2,N
1633432295.0,286046998.2,N
1633432295.9,286046998.2,N
1633432315.8,286047000.5,N
1633432335.6,286046998.2,N
1633432355.4,286047000.4,N
1633432375.3,286047000.1,N
1633432395.1,286047000.2,N
1633432396.0,286047000.2,N
1633432415.8,286047000.4,N
1633432435.7,286047002.7,N
1633432455.5,286047002.8,N
1633432475.3,286046999.7,N
1633432495.2,286047002.3,N
1633432515.9,286047002.7,N
1633432535.7,286047001.4,N
1633432555.6,286047001.3,N
1633432575.4,286047004.3,N
1633432595.2,286047003.9,N
1633432615.1,286047004.0,N
1633432616.0,286047004.0,N
1633432635.8,286047004.4,N
1633432655.6,286047002.0,N
1633432675.5,286047002.2,N
1633432695.3,286047001.8,N
1633432715.1,286047002.1,N
1633432735.9,286047001.5,N
1633432755.7,286047002.2,N
1633432775.5,286047002.8,N
1633432795.3,286047001.9,N
1633432815.2,286047002.6,N
1633432835.0,286047001.5,N
1633432835.9,286047001.5,N
1633432855.8,286047002.4,N
1633432875.6,286047001.6,N
1633432895.4,286047001.3,N
1633432915.3,286046999.7,N
1633432935.1,286047002.8,N
1633432936.0,286047002.8,N
1633432955.8,286047000.0,N
1633432975.7,286046999.8,N
1633432995.5,286046999.9,N
1633433015.3,286047000.9,N
1633433035.2,286047000.2,N
1633433055.9,286047004.4,Y
1633433075.7,286046999.8,P
1633433095.6,286046999.8,N
1633433115.4,286047001.5,N
1633433135.2,286047002.5,N
1633433155.1,286046999.9,N
1633433156.0,286046999.9,N
1633433175.8,286047000.6,N
1633433195.6,286046999.7,N
1633433215.5,286047002.4,N
1633433235.3,286047002.2,N
1633433255.1,286047002.5,N
1633433275.9,286047002.4,N
1633433295.7,286047002.0,N
1633433315.5,286047004.3,Y
1633433335.4,286047000.0,P
1633433355.2,286047002.2,P
1633433375.0,286047002.3,N
1633433375.9,286047002.3,N
1633433395.8,286047000.4,N
1633433415.6,286047002.1,N
1633433435.4,286047002.7,N
1633433455.3,286047001.4,N
1633433475.1,286047001.5,N
1633433476.0,286047001.5,N
1633433495.8,286047001.8,N
1633433515.7,286047001.4,N
1633433535.5,286047004.0,Y
1633433555.3,286047004.3,P
1633433575.2,286047004.3,P
1633433595.9,286047001.4,N
1633433615.7,286046999.8,N
1633433635.6,286047000.2,N
1633433655.4,286047000.3,N
1633433675.2,286047000.1,N
1633433695.1,286047001.6,N
1633433696.0,286047001.6,N
1633433715.8,286047001.6,N
1633433735.6,286047003.7,N
1633433755.5,286047004.0,N
1633433775.3,286047001.6,N
1633433795.1,286047002.1,N
1633433815.9,286047004.2,N
1633433835.7,286047003.2,N
1633433855.5,286047003.0,N
1633433875.4,286047002.9,N
1633433895.2,286047003.0,N
1633433915.0,286047003.5,N
1633433915.9,286047003.5,N
1633433935.8,286047003.6,N
1633433955.6,286047005.6,Y
1633433975.4,286047002.2,P
1633433995.3,286047001.3,P
1633434015.1,286047004.1,P
1633434035.8,286047001.8,N
1633434055.7,286047003.5,Y
1633434075.5,286047002.7,P
1633434095.3,286047002.8,P
1633434115.2,286047002.6,P
1633434135.0,286047000.3,N
1633434135.9,286047000.3,N
1633434155.7,286047001.2,N
1633434175.6,286047000.8,N
1633434195.4,286047000.7,N
1633434215.2,286046998.1,N
1633434235.1,286047000.0,N
1633434236.0,286047000.0,N
1633434255.8,286047000.3,N
1633434275.6,286047002.6,N
1633434295.5,286046999.7,N
1633434315.3,286047001.8,N
1633434335.1,286047002.0,N
1633434355.9,286047004.0,Y
1633434375.7,286047001.0,P
1633434425.6,286047000.6,E
1633434435.5,286047000.9,N
1633434455.3,286047000.8,P
1633434475.2,286046998.2,P
1633434495.9,286047000.7,N
1633434515.7,286047001.2,N
1633434535.6,286046998.3,N
1633434555.4,286047000.6,N
1633434575.2,286047001.2,N
1633434595.1,286047001.0,N
1633434596.0,286047001.0,N
1633434615.8,286047000.3,N
1633434635.6,286047000.5,N
1633434655.5,286046999.9,N
1633434675.3,286047002.3,N
1633434695.1,286047001.9,N
1633434715.9,286047002.4,N
1633434735.7,286046999.7,N
1633434755.5,286047000.1,N
1633434775.4,286046999.9,N
1633434795.2,286047001.9,N
1633434815.0,286047001.3,N
1633434815.9,286047001.3,N
1633434835.8,286047001.6,N
1633434855.6,286047002.8,N
1633434875.4,286046999.8,N
1633434895.3,286046999.7,N
1633434915.1,286047001.8,N
1633434916.0,286047001.8,N
1633434935.8,286047002.2,N
1633434955.7,286047001.5,N
1633434975.5,286047001.7,N
1633434995.3,286047003.3,N
1633435015.2,286047005.5,Y
1633435035.0,286047004.1,P
1633435035.9,286047004.1,N
1633435055.7,286047003.9,N
1633435075.6,286047001.6,N
1633435095.4,286047001.8,N
1633435115.2,286047001.7,N
1633435135.1,286047001.5,N
1633435136.0,286047001.5,N
1633435155.8,286047003.9,Y
1633435175.6,286047000.7,P
1633435195.5,286046998.4,N
